Terug naar catalogus

STARLINK-2661

ActiefCommunicatieVLEO
NORAD 48469·PAYLOAD·🇺🇸 United States

Gelanceerd May 9, 2021 vanaf Cape Canaveral Space Force Station

Loading…

Volgende Passages (komende 24 uur)

TLE

VersSource: CelesTrak SupGP

Epoch: Sep 14, 2026, 13:07 UTC

1 48469C 21040AT  26257.54701389 -.00028180  00000+0 -90629-3 0  2573
2 48469  53.1591  32.2817 0001148  97.1208 287.8938 15.31712605    18

Volg STARLINK-2661 in realtime met AllMySat

Download on the App Store